Regional Weather Roundup
Issued by NWS

Home | Current Version | Previous Version | Text Only | Print | Product List | Glossary Off
Versions: 1 2 3 4 5 6 7 8 9 10 11 12 13 14 15 16 17 18 19 20 21 22 23 24 25 26 27 28 29 30 31 32 33 34 35 36 37 38 39 40 41 42 43 44 45 46 47 48 49 50

000
ASUS43 KLSX 281410
RWRMO

WEATHER SUMMARY FOR MISSOURI
NATIONAL WEATHER SERVICE SPRINGFIELD MO
900 AM CDT FRI AUG 28 2015

NOTE: "FAIR" INDICATES FEW OR NO CLOUDS BELOW 12,000 FEET WITH NO
       SIGNIFICANT WEATHER AND/OR OBSTRUCTIONS TO VISIBILITY.
       CURRENT SKY AND/OR WEATHER CONDITIONS ARE NOT AVAILABLE FOR
       CHILLICOTHE AND FARMINGTON.

MOZ001>031-035>038-043-044-053-054-281500-
...NORTHERN AND WESTERN MISSOURI...

CITY           SKY/WX    TMP DP  RH WIND       PRES   REMARKS
KANSAS CTY INT CLOUDY    71  63  75 S13       29.97R
KANSAS C DTWN  CLOUDY    71  64  78 S13       29.97R
LEE`S SUMMIT   CLOUDY    69  63  81 S12G18    29.99R
ST JOSEPH      CLOUDY    70  65  84 S10       29.93R
CHILLICOTHE      N/A     69  62  78 S9        30.00R
KIRKSVILLE     CLOUDY    66  59  78 SE10      30.05R

$$
MOZ066>068-077>081-088>096-101>105-281500-
...SOUTHWEST MISSOURI...

CITY           SKY/WX    TMP DP  RH WIND       PRES   REMARKS
SPRINGFIELD    SUNNY     69  59  70 S12       30.07F
JOPLIN         CLOUDY    69  61  75 S10       30.04S

$$
MOZ032>034-039>042-045>050-055>058-069>072-281500-
...CENTRAL MISSOURI...

CITY           SKY/WX    TMP DP  RH WIND       PRES   REMARKS
COLUMBIA       CLOUDY    66  61  84 S9        30.07S
JEFFERSON CITY CLOUDY    67  59  75 SE7       30.07S
ROLLA          CLOUDY    65  59  81 SE7       30.10R
SEDALIA        CLOUDY    69  59  70 S10       30.05S
WHITEMAN AFB   CLOUDY    68  60  76 S14       30.00S
WARRENSBURG    CLOUDY    68  61  77 SE9G17    30.00S
OSAGE BEACH    MOSUNNY   66  57  72 S9        30.08S

$$
MOZ051-052-059>065-281500-
...EAST CENTRAL MISSOURI...

CITY           SKY/WX    TMP DP  RH WIND       PRES   REMARKS
ST LOUIS INTL  CLOUDY    70  59  68 S9        30.12S
SPIRIT OF STL  PTSUNNY   70  62  76 VRB3      30.10S
ST CHARLES     PTSUNNY   67  64  90 SE3       30.11S

$$
MOZ072>076-082>087-097>100-106>115-281500-
...SOUTH CENTRAL AND SOUTHEAST MISSOURI...

CITY           SKY/WX    TMP DP  RH WIND       PRES   REMARKS
CAPE GIRARDEAU SUNNY     68  63  84 E3        30.11F
FARMINGTON     MOSUNNY   64  61  88 S3        30.15S
POPLAR BLUFF   SUNNY     68  62  81 CALM      30.11R
WEST PLAINS    PTSUNNY   65  58  78 SE5       30.13S

$$


USA.gov is the U.S. government's official web portal to all federal, state and local government web resources and services.